Location: Newark
(53.3333°N, 83.7500°E)
Time: 00:09:09
(UTC+00:00)

Envisat - Visible Passes

Search period start: 24 September 2020 00:00
Search period end: 04 October 2020 00:00
Orbit: 764 x 766 km, 98.1° (Epoch: 23 September)

Date Brightness Start Highest point End Pass type
(mag) Time Alt. Az. Time Alt. Az. Time Alt. Az.
25 Sep 6.3 13:10:20 10° WSW 13:13:06 15° W 13:15:53 10° NW visible
25 Sep 5.9 23:31:10 10° NE 23:35:11 23° E 23:39:10 10° SE visible
26 Sep 6.5 22:56:00 10° ENE 22:57:51 12° E 22:59:41 10° ESE visible
28 Sep 6.2 12:58:11 10° SW 13:01:35 18° W 13:04:59 10° NW visible
28 Sep 6.1 23:20:05 10° NE 23:23:41 19° E 23:27:15 10° SE visible
30 Sep 6.7 13:26:09 10° W 13:27:26 11° W 13:28:44 10° WNW visible
30 Sep 5.4 23:44:58 10° NNE 23:49:25 29° E 23:53:50 10° SSE visible
01 Oct 6.0 12:46:13 10° SW 12:50:04 21° W 12:53:57 10° NW visible
01 Oct 6.2 23:09:07 10° NE 23:12:10 16° E 23:15:11 10° ESE visible
03 Oct 6.4 13:13:24 10° WSW 13:15:53 14° W 13:18:22 10° NW visible
03 Oct 5.7 23:33:47 10° NE 23:37:57 24° E 23:42:04 10° SE visible
